Time,TemperatureF,DewpointF,PressureIn,WindDirection,WindDirectionDegrees,WindSpeedMPH,WindSpeedGustMPH,Humidity,HourlyPrecipIn,Conditions,Clouds,dailyrainin,SoftwareType,DateUTC
2013-06-04 00:02:00,53.6,39.2,30.11,SW,225,0.0,0.0,58,0.00,,,0.00,meteohub,2013-06-04 05:02:00,
2013-06-04 00:07:00,53.6,38.3,30.11,SW,225,0.0,0.0,56,0.00,,,0.00,meteohub,2013-06-04 05:07:00,
2013-06-04 00:12:00,53.8,37.6,30.11,West,270,0.0,0.0,54,0.00,,,0.00,meteohub,2013-06-04 05:12:00,
2013-06-04 00:22:00,54.1,36.9,30.11,SW,225,0.0,0.0,52,0.00,,,0.00,meteohub,2013-06-04 05:22:00,
2013-06-04 00:27:00,54.3,36.5,30.11,SW,225,0.0,0.0,51,0.00,,,0.00,meteohub,2013-06-04 05:27:00,
2013-06-04 00:32:00,54.3,36.1,30.11,SW,225,0.0,0.0,50,0.00,,,0.00,meteohub,2013-06-04 05:32:00,
2013-06-04 00:37:00,54.1,36.0,30.12,West,270,0.0,0.0,50,0.00,,,0.00,meteohub,2013-06-04 05:37:00,
2013-06-04 00:42:00,53.8,35.6,30.12,West,270,0.0,0.0,50,0.00,,,0.00,meteohub,2013-06-04 05:42:00,
2013-06-04 00:47:00,53.6,36.3,30.12,SW,225,0.0,0.0,52,0.00,,,0.00,meteohub,2013-06-04 05:47:00,
2013-06-04 00:52:00,53.4,37.6,30.12,SW,225,0.0,0.0,55,0.00,,,0.00,meteohub,2013-06-04 05:52:00,
2013-06-04 00:57:00,53.1,37.8,30.11,SW,225,0.0,0.0,56,0.00,,,0.00,meteohub,2013-06-04 05:57:00,
2013-06-04 01:02:00,52.9,37.6,30.11,SW,225,0.0,0.0,56,0.00,,,0.00,meteohub,2013-06-04 06:02:00,
2013-06-04 01:07:00,52.7,37.9,30.11,SW,225,0.0,0.0,57,0.00,,,0.00,meteohub,2013-06-04 06:07:00,
2013-06-04 01:12:00,52.3,37.6,30.12,SW,225,0.0,0.0,57,0.00,,,0.00,meteohub,2013-06-04 06:12:00,
2013-06-04 01:17:00,52.3,38.5,30.11,SW,225,0.0,0.0,59,0.00,,,0.00,meteohub,2013-06-04 06:17:00,
2013-06-04 01:22:00,52.3,38.5,30.11,West,270,0.0,0.0,59,0.00,,,0.00,meteohub,2013-06-04 06:22:00,
2013-06-04 01:27:00,52.2,38.3,30.11,West,270,0.0,0.0,59,0.00,,,0.00,meteohub,2013-06-04 06:27:00,
2013-06-04 01:32:00,52.2,38.3,30.11,West,270,0.0,0.0,59,0.00,,,0.00,meteohub,2013-06-04 06:32:00,
2013-06-04 01:37:00,52.2,38.3,30.11,West,270,0.0,0.0,59,0.00,,,0.00,meteohub,2013-06-04 06:37:00,
2013-06-04 01:42:00,52.2,38.3,30.11,West,270,0.0,0.0,59,0.00,,,0.00,meteohub,2013-06-04 06:42:00,
2013-06-04 01:47:00,52.2,38.3,30.12,West,270,0.0,0.0,59,0.00,,,0.00,meteohub,2013-06-04 06:47:00,
2013-06-04 01:52:00,52.2,38.7,30.11,SW,225,0.0,0.0,60,0.00,,,0.00,meteohub,2013-06-04 06:52:00,
2013-06-04 01:57:00,51.8,38.8,30.11,SW,225,0.0,0.0,61,0.00,,,0.00,meteohub,2013-06-04 06:57:00,
2013-06-04 02:02:00,51.6,39.4,30.11,West,270,0.0,0.0,63,0.00,,,0.00,meteohub,2013-06-04 07:02:00,
2013-06-04 02:07:00,51.3,39.0,30.11,West,270,0.0,0.0,63,0.00,,,0.00,meteohub,2013-06-04 07:07:00,
2013-06-04 02:12:00,51.4,39.2,30.11,West,270,0.0,0.0,63,0.00,,,0.00,meteohub,2013-06-04 07:12:00,
2013-06-04 02:17:00,51.6,39.9,30.11,SW,225,0.0,0.0,64,0.00,,,0.00,meteohub,2013-06-04 07:17:00,
2013-06-04 02:22:00,51.8,40.1,30.12,SW,225,0.0,0.0,64,0.00,,,0.00,meteohub,2013-06-04 07:22:00,
2013-06-04 02:27:00,52.0,39.7,30.11,SW,225,0.0,0.0,63,0.00,,,0.00,meteohub,2013-06-04 07:27:00,
2013-06-04 02:32:00,52.2,39.9,30.12,West,270,0.0,0.0,63,0.00,,,0.00,meteohub,2013-06-04 07:32:00,
2013-06-04 02:37:00,52.3,39.7,30.11,West,270,0.0,0.0,62,0.00,,,0.00,meteohub,2013-06-04 07:37:00,
2013-06-04 02:42:00,52.3,39.7,30.10,SW,225,0.0,0.0,62,0.00,,,0.00,meteohub,2013-06-04 07:42:00,
2013-06-04 02:47:00,52.5,39.4,30.10,SW,225,0.0,0.0,61,0.00,,,0.00,meteohub,2013-06-04 07:47:00,
2013-06-04 02:52:00,52.3,39.4,30.10,SW,225,0.0,0.0,61,0.00,,,0.00,meteohub,2013-06-04 07:52:00,
2013-06-04 02:57:00,52.3,39.4,30.10,SW,225,0.0,0.0,61,0.00,,,0.00,meteohub,2013-06-04 07:57:00,
2013-06-04 03:02:00,52.3,39.7,30.10,SW,225,0.0,0.0,62,0.00,,,0.00,meteohub,2013-06-04 08:02:00,
2013-06-04 03:07:00,52.2,39.9,30.10,SW,225,0.0,0.0,63,0.00,,,0.00,meteohub,2013-06-04 08:07:00,
2013-06-04 03:12:00,52.0,40.1,30.10,SW,225,0.0,0.0,64,0.00,,,0.00,meteohub,2013-06-04 08:12:00,
2013-06-04 03:22:00,51.4,41.2,30.10,West,270,0.0,0.0,68,0.00,,,0.00,meteohub,2013-06-04 08:22:00,
2013-06-04 03:27:00,51.3,41.4,30.11,West,270,0.0,0.0,69,0.00,,,0.00,meteohub,2013-06-04 08:27:00,
2013-06-04 03:32:00,51.3,41.4,30.11,West,270,0.0,0.0,69,0.00,,,0.00,meteohub,2013-06-04 08:32:00,
2013-06-04 03:37:00,51.3,40.6,30.11,West,270,0.0,0.0,67,0.00,,,0.00,meteohub,2013-06-04 08:37:00,
2013-06-04 03:42:00,51.3,39.9,30.11,West,270,0.0,0.0,65,0.00,,,0.00,meteohub,2013-06-04 08:42:00,
2013-06-04 03:47:00,51.4,39.2,30.11,West,270,0.0,0.0,63,0.00,,,0.00,meteohub,2013-06-04 08:47:00,
2013-06-04 03:52:00,51.1,38.8,30.11,West,270,0.0,0.0,63,0.00,,,0.00,meteohub,2013-06-04 08:52:00,
2013-06-04 03:57:00,50.9,39.2,30.11,West,270,0.0,0.0,64,0.00,,,0.00,meteohub,2013-06-04 08:57:00,
2013-06-04 04:02:00,50.7,40.1,30.12,West,270,0.0,0.0,67,0.00,,,0.00,meteohub,2013-06-04 09:02:00,
2013-06-04 04:07:00,50.5,39.6,30.12,West,270,0.0,0.0,66,0.00,,,0.00,meteohub,2013-06-04 09:07:00,
2013-06-04 04:12:00,50.4,40.3,30.12,West,270,0.0,0.0,68,0.00,,,0.00,meteohub,2013-06-04 09:12:00,
2013-06-04 04:17:00,50.4,40.3,30.12,West,270,0.0,0.0,68,0.00,,,0.00,meteohub,2013-06-04 09:17:00,
2013-06-04 04:22:00,50.4,40.3,30.13,West,270,0.0,0.0,68,0.00,,,0.00,meteohub,2013-06-04 09:22:00,
2013-06-04 04:27:00,50.9,39.9,30.13,SW,225,0.0,0.0,66,0.00,,,0.00,meteohub,2013-06-04 09:27:00,
2013-06-04 04:32:00,51.3,39.6,30.12,SW,225,0.0,0.0,64,0.00,,,0.00,meteohub,2013-06-04 09:32:00,
2013-06-04 04:37:00,51.6,39.0,30.13,SW,225,0.0,0.0,62,0.00,,,0.00,meteohub,2013-06-04 09:37:00,
2013-06-04 04:42:00,52.0,38.1,30.13,SW,225,0.0,0.0,59,0.00,,,0.00,meteohub,2013-06-04 09:42:00,
2013-06-04 04:47:00,52.2,37.8,30.13,SW,225,0.0,0.0,58,0.00,,,0.00,meteohub,2013-06-04 09:47:00,
2013-06-04 04:52:00,52.3,37.9,30.14,SW,225,0.0,0.0,58,0.00,,,0.00,meteohub,2013-06-04 09:52:00,
2013-06-04 04:57:00,52.3,38.5,30.14,SW,225,0.0,0.0,59,0.00,,,0.00,meteohub,2013-06-04 09:57:00,
2013-06-04 05:02:00,52.3,38.8,30.14,SE,135,0.0,0.0,60,0.00,,,0.00,meteohub,2013-06-04 10:02:00,
2013-06-04 05:12:00,52.2,39.9,30.14,SE,135,0.0,0.0,63,0.00,,,0.00,meteohub,2013-06-04 10:12:00,
2013-06-04 05:17:00,52.2,39.9,30.14,West,270,0.0,0.0,63,0.00,,,0.00,meteohub,2013-06-04 10:17:00,
2013-06-04 05:27:00,51.8,40.1,30.14,West,270,0.0,0.0,64,0.00,,,0.00,meteohub,2013-06-04 10:27:00,
2013-06-04 05:32:00,51.6,40.6,30.15,West,270,0.0,0.0,66,0.00,,,0.00,meteohub,2013-06-04 10:32:00,
2013-06-04 05:37:00,51.4,40.5,30.14,West,270,0.0,0.0,66,0.00,,,0.00,meteohub,2013-06-04 10:37:00,
2013-06-04 05:42:00,51.6,40.6,30.14,West,270,0.0,0.0,66,0.00,,,0.00,meteohub,2013-06-04 10:42:00,
2013-06-04 05:47:00,51.6,41.0,30.15,West,270,0.0,0.0,67,0.00,,,0.00,meteohub,2013-06-04 10:47:00,
2013-06-04 05:52:00,51.6,41.4,30.14,West,270,0.0,0.0,68,0.00,,,0.00,meteohub,2013-06-04 10:52:00,
2013-06-04 05:57:00,51.6,42.1,30.15,West,270,0.0,0.0,70,0.00,,,0.00,meteohub,2013-06-04 10:57:00,
2013-06-04 06:02:00,51.8,41.9,30.14,East,90,0.0,0.0,69,0.00,,,0.00,meteohub,2013-06-04 11:02:00,
2013-06-04 06:07:00,52.0,42.1,30.14,East,90,0.0,0.0,69,0.00,,,0.00,meteohub,2013-06-04 11:07:00,
2013-06-04 06:12:00,52.3,42.4,30.14,East,90,0.0,0.0,69,0.00,,,0.00,meteohub,2013-06-04 11:12:00,
2013-06-04 06:17:00,52.7,42.4,30.15,East,90,0.0,0.0,68,0.00,,,0.00,meteohub,2013-06-04 11:17:00,
2013-06-04 06:22:00,53.1,42.8,30.14,East,90,0.0,0.0,68,0.00,,,0.00,meteohub,2013-06-04 11:22:00,
2013-06-04 06:27:00,53.6,43.3,30.15,NE,45,0.0,0.0,68,0.00,,,0.00,meteohub,2013-06-04 11:27:00,
2013-06-04 06:32:00,53.8,42.6,30.15,East,90,0.0,0.0,66,0.00,,,0.00,meteohub,2013-06-04 11:32:00,
2013-06-04 06:37:00,54.1,42.6,30.15,NE,45,0.0,0.0,65,0.00,,,0.00,meteohub,2013-06-04 11:37:00,
2013-06-04 06:42:00,54.3,41.5,30.15,East,90,0.0,0.0,62,0.00,,,0.00,meteohub,2013-06-04 11:42:00,
2013-06-04 06:47:00,54.7,42.3,30.15,NE,45,0.0,0.0,63,0.00,,,0.00,meteohub,2013-06-04 11:47:00,
2013-06-04 06:52:00,55.0,41.9,30.15,NE,45,0.0,0.0,61,0.00,,,0.00,meteohub,2013-06-04 11:52:00,
2013-06-04 06:57:00,55.2,42.4,30.16,East,90,0.0,0.0,62,0.00,,,0.00,meteohub,2013-06-04 11:57:00,
2013-06-04 07:02:00,55.0,41.9,30.16,East,90,0.0,0.0,61,0.00,,,0.00,meteohub,2013-06-04 12:02:00,
2013-06-04 07:07:00,55.0,41.9,30.15,East,90,0.0,0.0,61,0.00,,,0.00,meteohub,2013-06-04 12:07:00,
2013-06-04 07:12:00,55.0,41.9,30.16,East,90,0.0,0.0,61,0.00,,,0.00,meteohub,2013-06-04 12:12:00,
2013-06-04 07:17:00,55.2,42.4,30.16,East,90,0.0,0.0,62,0.00,,,0.00,meteohub,2013-06-04 12:17:00,
2013-06-04 07:22:00,55.6,43.2,30.16,East,90,0.0,0.0,63,0.00,,,0.00,meteohub,2013-06-04 12:22:00,
2013-06-04 07:27:00,55.6,43.2,30.16,East,90,0.0,0.0,63,0.00,,,0.00,meteohub,2013-06-04 12:27:00,
2013-06-04 07:32:00,56.7,44.6,30.15,South,180,0.0,0.0,64,0.00,,,0.00,meteohub,2013-06-04 12:32:00,
2013-06-04 07:37:00,58.1,45.5,30.15,NE,45,0.0,0.0,63,0.00,,,0.00,meteohub,2013-06-04 12:37:00,
2013-06-04 07:42:00,58.6,44.4,30.16,East,90,0.0,0.0,59,0.00,,,0.00,meteohub,2013-06-04 12:42:00,
2013-06-04 07:47:00,59.0,42.4,30.16,East,90,0.0,0.0,54,0.00,,,0.00,meteohub,2013-06-04 12:47:00,
2013-06-04 07:52:00,59.2,43.0,30.16,North,0,0.0,0.0,55,0.00,,,0.00,meteohub,2013-06-04 12:52:00,
2013-06-04 07:57:00,59.9,44.2,30.16,East,90,0.0,0.0,56,0.00,,,0.00,meteohub,2013-06-04 12:57:00,
2013-06-04 08:02:00,61.7,43.9,30.16,East,90,0.0,0.0,52,0.00,,,0.00,meteohub,2013-06-04 13:02:00,
2013-06-04 08:07:00,62.8,42.8,30.16,North,0,0.0,0.0,48,0.00,,,0.00,meteohub,2013-06-04 13:07:00,
2013-06-04 08:12:00,63.7,43.7,30.16,South,180,0.0,0.0,48,0.00,,,0.00,meteohub,2013-06-04 13:12:00,
2013-06-04 08:17:00,64.4,43.7,30.16,NE,45,0.0,0.0,47,0.00,,,0.00,meteohub,2013-06-04 13:17:00,
2013-06-04 08:22:00,64.2,43.5,30.17,SE,135,0.0,0.0,47,0.00,,,0.00,meteohub,2013-06-04 13:22:00,
2013-06-04 08:27:00,64.2,43.0,30.16,East,90,0.0,0.0,46,0.00,,,0.00,meteohub,2013-06-04 13:27:00,
2013-06-04 08:32:00,64.8,44.6,30.15,West,270,0.0,0.0,48,0.00,,,0.00,meteohub,2013-06-04 13:32:00,
2013-06-04 08:37:00,65.7,44.2,30.16,East,90,0.0,0.0,46,0.00,,,0.00,meteohub,2013-06-04 13:37:00,
2013-06-04 08:42:00,66.0,44.1,30.16,North,0,0.0,0.0,45,0.00,,,0.00,meteohub,2013-06-04 13:42:00,
2013-06-04 08:47:00,65.7,45.0,30.16,ENE,68,0.0,0.0,47,0.00,,,0.00,meteohub,2013-06-04 13:47:00,
2013-06-04 08:52:00,64.6,43.3,30.16,NE,45,0.0,0.0,46,0.00,,,0.00,meteohub,2013-06-04 13:52:00,
2013-06-04 08:57:00,64.9,44.8,30.16,NE,45,0.0,0.0,48,0.00,,,0.00,meteohub,2013-06-04 13:57:00,
2013-06-04 09:02:00,64.8,45.1,30.17,NE,45,0.0,0.0,49,0.00,,,0.00,meteohub,2013-06-04 14:02:00,
2013-06-04 09:07:00,64.4,43.7,30.17,SE,135,0.0,0.0,47,0.00,,,0.00,meteohub,2013-06-04 14:07:00,
2013-06-04 09:12:00,64.0,43.9,30.17,East,90,0.0,0.0,48,0.00,,,0.00,meteohub,2013-06-04 14:12:00,
2013-06-04 09:17:00,63.7,44.8,30.17,NNW,338,0.0,0.0,50,0.00,,,0.00,meteohub,2013-06-04 14:17:00,
2013-06-04 09:22:00,63.3,44.4,30.17,East,90,0.0,0.0,50,0.00,,,0.00,meteohub,2013-06-04 14:22:00,
2013-06-04 09:27:00,64.6,46.0,30.17,West,270,0.0,0.0,51,0.00,,,0.00,meteohub,2013-06-04 14:27:00,
2013-06-04 09:32:00,65.5,45.3,30.16,NE,45,0.0,0.0,48,0.00,,,0.00,meteohub,2013-06-04 14:32:00,
2013-06-04 09:37:00,65.7,44.2,30.16,NE,45,0.0,0.0,46,0.00,,,0.00,meteohub,2013-06-04 14:37:00,
2013-06-04 09:42:00,65.1,43.9,30.16,East,90,0.0,0.0,46,0.00,,,0.00,meteohub,2013-06-04 14:42:00,
2013-06-04 09:47:00,65.8,45.0,30.15,SE,135,0.0,0.0,47,0.00,,,0.00,meteohub,2013-06-04 14:47:00,
2013-06-04 09:52:00,66.2,44.8,30.14,ESE,113,0.0,0.0,46,0.00,,,0.00,meteohub,2013-06-04 14:52:00,
2013-06-04 09:57:00,66.7,44.8,30.14,South,180,0.0,0.0,45,0.00,,,0.00,meteohub,2013-06-04 14:57:00,
2013-06-04 10:02:00,67.1,43.9,30.14,East,90,0.0,0.0,43,0.00,,,0.00,meteohub,2013-06-04 15:02:00,
2013-06-04 10:07:00,67.1,44.4,30.15,NE,45,0.0,0.0,44,0.00,,,0.00,meteohub,2013-06-04 15:07:00,
2013-06-04 10:12:00,67.1,44.4,30.15,East,90,0.0,0.0,44,0.00,,,0.00,meteohub,2013-06-04 15:12:00,
2013-06-04 10:22:00,66.2,43.0,30.15,East,90,0.0,0.0,43,0.00,,,0.00,meteohub,2013-06-04 15:22:00,
2013-06-04 10:27:00,66.6,44.6,30.15,NE,45,0.0,0.0,45,0.00,,,0.00,meteohub,2013-06-04 15:27:00,
2013-06-04 10:32:00,67.8,45.7,30.16,SW,225,0.0,0.0,45,0.00,,,0.00,meteohub,2013-06-04 15:32:00,
2013-06-04 10:37:00,68.5,43.9,30.15,SE,135,0.0,0.0,41,0.00,,,0.00,meteohub,2013-06-04 15:37:00,
2013-06-04 10:42:00,68.9,43.5,30.16,ENE,68,0.0,0.0,40,0.00,,,0.00,meteohub,2013-06-04 15:42:00,
2013-06-04 10:47:00,68.9,43.5,30.16,WSW,248,0.0,0.0,40,0.00,,,0.00,meteohub,2013-06-04 15:47:00,
2013-06-04 10:52:00,68.5,43.9,30.16,NE,45,0.0,0.0,41,0.00,,,0.00,meteohub,2013-06-04 15:52:00,
2013-06-04 10:57:00,69.3,45.1,30.16,South,180,0.0,0.0,42,0.00,,,0.00,meteohub,2013-06-04 15:57:00,
2013-06-04 11:02:00,69.1,43.7,30.16,SW,225,0.0,0.0,40,0.00,,,0.00,meteohub,2013-06-04 16:02:00,
2013-06-04 11:07:00,69.1,45.7,30.16,SSW,203,0.0,1.0,43,0.00,,,0.00,meteohub,2013-06-04 16:07:00,
2013-06-04 11:12:00,69.4,46.6,30.16,SE,135,0.0,1.0,44,0.00,,,0.00,meteohub,2013-06-04 16:12:00,
2013-06-04 11:17:00,69.8,44.4,30.16,North,0,0.0,1.0,40,0.00,,,0.00,meteohub,2013-06-04 16:17:00,
2013-06-04 11:22:00,70.0,43.9,30.16,SW,225,0.0,0.0,39,0.00,,,0.00,meteohub,2013-06-04 16:22:00,
2013-06-04 11:27:00,69.4,45.3,30.16,SW,225,0.0,0.0,42,0.00,,,0.00,meteohub,2013-06-04 16:27:00,
2013-06-04 11:32:00,70.7,45.1,30.16,South,180,0.0,0.0,40,0.00,,,0.00,meteohub,2013-06-04 16:32:00,
2013-06-04 11:42:00,69.8,43.0,30.15,West,270,0.0,0.0,38,0.00,,,0.00,meteohub,2013-06-04 16:42:00,
2013-06-04 11:47:00,69.3,43.9,30.16,West,270,0.0,0.0,40,0.00,,,0.00,meteohub,2013-06-04 16:47:00,
2013-06-04 11:52:00,70.3,45.5,30.15,South,180,0.0,0.0,41,0.00,,,0.00,meteohub,2013-06-04 16:52:00,
2013-06-04 11:57:00,71.4,45.1,30.15,East,90,0.0,0.0,39,0.00,,,0.00,meteohub,2013-06-04 16:57:00,
2013-06-04 12:02:00,72.0,43.5,30.14,South,180,0.0,0.0,36,0.00,,,0.00,meteohub,2013-06-04 17:02:00,
2013-06-04 12:07:00,72.7,45.7,30.14,SW,225,0.0,0.0,38,0.00,,,0.00,meteohub,2013-06-04 17:07:00,
2013-06-04 12:12:00,72.5,44.1,30.14,North,0,0.0,0.0,36,0.00,,,0.00,meteohub,2013-06-04 17:12:00,
2013-06-04 12:17:00,72.7,43.5,30.14,NE,45,0.0,0.0,35,0.00,,,0.00,meteohub,2013-06-04 17:17:00,
2013-06-04 12:22:00,71.1,42.1,30.13,NW,315,0.0,0.0,35,0.00,,,0.00,meteohub,2013-06-04 17:22:00,
2013-06-04 12:32:00,71.4,45.1,30.14,SE,135,0.0,0.0,39,0.00,,,0.00,meteohub,2013-06-04 17:32:00,
2013-06-04 12:37:00,72.3,44.6,30.13,SE,135,0.0,0.0,37,0.00,,,0.00,meteohub,2013-06-04 17:37:00,
2013-06-04 12:42:00,73.0,44.4,30.14,South,180,0.0,0.0,36,0.00,,,0.00,meteohub,2013-06-04 17:42:00,
2013-06-04 12:47:00,73.4,43.3,30.13,South,180,0.0,0.0,34,0.00,,,0.00,meteohub,2013-06-04 17:47:00,
2013-06-04 12:52:00,72.3,43.2,30.13,East,90,0.0,0.0,35,0.00,,,0.00,meteohub,2013-06-04 17:52:00,
2013-06-04 12:57:00,72.3,41.5,30.13,NE,45,0.0,0.0,33,0.00,,,0.00,meteohub,2013-06-04 17:57:00,
2013-06-04 13:02:00,72.0,42.1,30.13,SE,135,0.0,0.0,34,0.00,,,0.00,meteohub,2013-06-04 18:02:00,
2013-06-04 13:07:00,72.5,44.8,30.14,South,180,0.0,0.0,37,0.00,,,0.00,meteohub,2013-06-04 18:07:00,
2013-06-04 13:12:00,72.5,41.7,30.14,West,270,0.0,0.0,33,0.00,,,0.00,meteohub,2013-06-04 18:12:00,
2013-06-04 13:17:00,73.0,45.1,30.14,South,180,0.0,0.0,37,0.00,,,0.00,meteohub,2013-06-04 18:17:00,
2013-06-04 13:22:00,73.0,42.3,30.14,East,90,0.0,0.0,33,0.00,,,0.00,meteohub,2013-06-04 18:22:00,
2013-06-04 13:27:00,72.9,40.5,30.14,South,180,0.0,0.0,31,0.00,,,0.00,meteohub,2013-06-04 18:27:00,
2013-06-04 13:32:00,73.2,42.4,30.13,East,90,0.0,0.0,33,0.00,,,0.00,meteohub,2013-06-04 18:32:00,
2013-06-04 13:37:00,72.7,40.3,30.14,South,180,0.0,0.0,31,0.00,,,0.00,meteohub,2013-06-04 18:37:00,
2013-06-04 13:42:00,72.5,41.7,30.14,South,180,0.0,1.0,33,0.00,,,0.00,meteohub,2013-06-04 18:42:00,
2013-06-04 13:47:00,71.4,41.5,30.13,NE,45,0.0,1.0,34,0.00,,,0.00,meteohub,2013-06-04 18:47:00,
2013-06-04 13:52:00,71.2,43.0,30.14,West,270,0.0,0.0,36,0.00,,,0.00,meteohub,2013-06-04 18:52:00,
2013-06-04 13:57:00,71.8,42.6,30.13,NE,45,0.0,0.0,35,0.00,,,0.00,meteohub,2013-06-04 18:57:00,
2013-06-04 14:02:00,71.8,43.3,30.13,SW,225,0.0,0.0,36,0.00,,,0.00,meteohub,2013-06-04 19:02:00,
2013-06-04 14:07:00,71.2,44.2,30.14,East,90,0.0,0.0,38,0.00,,,0.00,meteohub,2013-06-04 19:07:00,
2013-06-04 14:12:00,70.5,44.4,30.14,NE,45,0.0,0.0,39,0.00,,,0.00,meteohub,2013-06-04 19:12:00,
2013-06-04 14:17:00,70.5,45.0,30.13,NE,45,0.0,0.0,40,0.00,,,0.00,meteohub,2013-06-04 19:17:00,
2013-06-04 14:22:00,71.1,44.8,30.13,East,90,0.0,0.0,39,0.00,,,0.00,meteohub,2013-06-04 19:22:00,
2013-06-04 14:27:00,70.5,44.4,30.13,NE,45,0.0,0.0,39,0.00,,,0.00,meteohub,2013-06-04 19:27:00,
2013-06-04 14:32:00,69.1,42.4,30.13,NE,45,0.0,0.0,38,0.00,,,0.00,meteohub,2013-06-04 19:32:00,
2013-06-04 14:37:00,70.2,44.1,30.12,NE,45,0.0,1.0,39,0.00,,,0.00,meteohub,2013-06-04 19:37:00,
2013-06-04 14:42:00,70.5,43.0,30.13,SE,135,0.0,1.0,37,0.00,,,0.00,meteohub,2013-06-04 19:42:00,
2013-06-04 14:47:00,70.3,42.1,30.13,SW,225,0.0,0.0,36,0.00,,,0.00,meteohub,2013-06-04 19:47:00,
2013-06-04 14:52:00,69.8,42.4,30.13,East,90,0.0,0.0,37,0.00,,,0.00,meteohub,2013-06-04 19:52:00,
2013-06-04 14:57:00,69.8,42.4,30.12,SE,135,0.0,0.0,37,0.00,,,0.00,meteohub,2013-06-04 19:57:00,
2013-06-04 15:02:00,69.8,41.7,30.12,NE,45,0.0,0.0,36,0.00,,,0.00,meteohub,2013-06-04 20:02:00,
2013-06-04 15:07:00,68.9,41.5,30.12,East,90,0.0,0.0,37,0.00,,,0.00,meteohub,2013-06-04 20:07:00,
2013-06-04 15:17:00,68.5,41.9,30.13,East,90,0.0,0.0,38,0.00,,,0.00,meteohub,2013-06-04 20:17:00,
2013-06-04 15:22:00,68.0,42.1,30.12,SE,135,0.0,0.0,39,0.00,,,0.00,meteohub,2013-06-04 20:22:00,
2013-06-04 15:27:00,67.3,42.8,30.13,North,0,0.0,0.0,41,0.00,,,0.00,meteohub,2013-06-04 20:27:00,
2013-06-04 15:32:00,67.3,42.8,30.13,East,90,0.0,0.0,41,0.00,,,0.00,meteohub,2013-06-04 20:32:00,
2013-06-04 15:37:00,66.7,43.0,30.13,NE,45,0.0,0.0,42,0.00,,,0.00,meteohub,2013-06-04 20:37:00,
2013-06-04 15:42:00,66.7,43.0,30.13,East,90,0.0,0.0,42,0.00,,,0.00,meteohub,2013-06-04 20:42:00,
2013-06-04 15:47:00,66.6,42.8,30.13,South,180,0.0,0.0,42,0.00,,,0.00,meteohub,2013-06-04 20:47:00,
2013-06-04 15:52:00,66.9,43.2,30.13,East,90,0.0,0.0,42,0.00,,,0.00,meteohub,2013-06-04 20:52:00,
2013-06-04 15:57:00,67.6,43.2,30.13,SE,135,0.0,0.0,41,0.00,,,0.00,meteohub,2013-06-04 20:57:00,
2013-06-04 16:02:00,67.3,42.8,30.13,East,90,0.0,0.0,41,0.00,,,0.00,meteohub,2013-06-04 21:02:00,
2013-06-04 16:07:00,67.3,43.3,30.13,East,90,0.0,0.0,42,0.00,,,0.00,meteohub,2013-06-04 21:07:00,
2013-06-04 16:12:00,66.7,42.3,30.13,NE,45,0.0,0.0,41,0.00,,,0.00,meteohub,2013-06-04 21:12:00,
2013-06-04 16:17:00,66.4,41.9,30.13,East,90,0.0,0.0,41,0.00,,,0.00,meteohub,2013-06-04 21:17:00,
2013-06-04 16:27:00,66.9,42.4,30.13,NE,45,0.0,1.0,41,0.00,,,0.00,meteohub,2013-06-04 21:27:00,
2013-06-04 16:37:00,67.1,42.6,30.13,NE,45,0.0,1.0,41,0.00,,,0.00,meteohub,2013-06-04 21:37:00,
2013-06-04 16:42:00,67.5,43.5,30.13,NE,45,0.0,0.0,42,0.00,,,0.00,meteohub,2013-06-04 21:42:00,
2013-06-04 16:52:00,66.7,43.0,30.13,NE,45,0.0,1.0,42,0.00,,,0.00,meteohub,2013-06-04 21:52:00,
2013-06-04 16:57:00,66.0,43.5,30.13,ENE,68,0.0,1.0,44,0.00,,,0.00,meteohub,2013-06-04 21:57:00,
2013-06-04 17:02:00,65.7,42.6,30.12,NE,45,0.0,0.0,43,0.00,,,0.00,meteohub,2013-06-04 22:02:00,
2013-06-04 17:07:00,65.8,43.3,30.12,ENE,68,0.0,0.0,44,0.00,,,0.00,meteohub,2013-06-04 22:07:00,
2013-06-04 17:12:00,65.7,42.6,30.12,East,90,0.0,0.0,43,0.00,,,0.00,meteohub,2013-06-04 22:12:00,
2013-06-04 17:17:00,65.5,42.4,30.12,NE,45,0.0,0.0,43,0.00,,,0.00,meteohub,2013-06-04 22:17:00,
2013-06-04 17:22:00,65.5,42.4,30.13,East,90,0.0,0.0,43,0.00,,,0.00,meteohub,2013-06-04 22:22:00,
2013-06-04 17:27:00,64.8,41.2,30.13,East,90,0.0,0.0,42,0.00,,,0.00,meteohub,2013-06-04 22:27:00,
2013-06-04 17:37:00,63.7,41.4,30.13,NE,45,0.0,1.0,44,0.00,,,0.00,meteohub,2013-06-04 22:37:00,
2013-06-04 17:42:00,63.1,42.6,30.13,NE,45,0.0,1.0,47,0.00,,,0.00,meteohub,2013-06-04 22:42:00,
2013-06-04 17:47:00,62.8,42.8,30.13,NE,45,0.0,0.0,48,0.00,,,0.00,meteohub,2013-06-04 22:47:00,
2013-06-04 17:52:00,62.1,44.2,30.13,NE,45,0.0,0.0,52,0.00,,,0.00,meteohub,2013-06-04 22:52:00,
2013-06-04 17:57:00,61.9,47.5,30.13,NE,45,0.0,0.0,59,0.00,,,0.00,meteohub,2013-06-04 22:57:00,
2013-06-04 18:02:00,60.6,48.0,30.13,East,90,0.0,0.0,63,0.00,,,0.00,meteohub,2013-06-04 23:02:00,
2013-06-04 18:07:00,59.0,46.8,30.12,East,90,0.0,0.0,64,0.00,,,0.00,meteohub,2013-06-04 23:07:00,
2013-06-04 18:12:00,57.4,46.6,30.13,East,90,0.0,1.0,67,0.00,,,0.00,meteohub,2013-06-04 23:12:00,
2013-06-04 18:17:00,56.5,46.0,30.13,East,90,0.0,1.0,68,0.00,,,0.00,meteohub,2013-06-04 23:17:00,
2013-06-04 18:22:00,55.6,46.0,30.12,East,90,0.0,1.0,70,0.00,,,0.00,meteohub,2013-06-04 23:22:00,
2013-06-04 18:27:00,54.7,45.1,30.11,ESE,113,0.0,1.0,70,0.00,,,0.00,meteohub,2013-06-04 23:27:00,
2013-06-04 18:32:00,54.7,45.5,30.09,East,90,11.0,11.0,71,0.00,,,0.00,meteohub,2013-06-04 23:32:00,
2013-06-04 18:37:00,54.5,45.3,30.10,East,90,1.0,11.0,71,0.00,,,0.00,meteohub,2013-06-04 23:37:00,
2013-06-04 18:42:00,54.3,45.5,30.11,NE,45,0.0,11.0,72,0.00,,,0.00,meteohub,2013-06-04 23:42:00,
2013-06-04 18:47:00,54.1,45.0,30.12,NE,45,0.0,11.0,71,0.00,,,0.00,meteohub,2013-06-04 23:47:00,
2013-06-04 18:52:00,54.1,45.0,30.13,East,90,0.0,1.0,71,0.00,,,0.00,meteohub,2013-06-04 23:52:00,
2013-06-04 18:57:00,54.1,44.6,30.13,East,90,0.0,1.0,70,0.00,,,0.00,meteohub,2013-06-04 23:57:00,
2013-06-04 19:02:00,54.0,44.4,30.11,East,90,0.0,1.0,70,0.00,,,0.00,meteohub,2013-06-05 00:02:00,
2013-06-04 19:07:00,53.8,44.2,30.12,North,0,0.0,0.0,70,0.00,,,0.00,meteohub,2013-06-05 00:07:00,
2013-06-04 19:12:00,53.8,44.2,30.14,NE,45,0.0,0.0,70,0.00,,,0.00,meteohub,2013-06-05 00:12:00,
2013-06-04 19:17:00,53.6,44.1,30.15,North,0,0.0,0.0,70,0.00,,,0.00,meteohub,2013-06-05 00:17:00,
2013-06-04 19:22:00,53.4,43.9,30.16,East,90,0.0,1.0,70,0.00,,,0.00,meteohub,2013-06-05 00:22:00,
2013-06-04 19:27:00,53.4,43.9,30.15,East,90,0.0,1.0,70,0.00,,,0.00,meteohub,2013-06-05 00:27:00,
2013-06-04 19:32:00,53.4,43.9,30.16,NE,45,0.0,1.0,70,0.00,,,0.00,meteohub,2013-06-05 00:32:00,
2013-06-04 19:37:00,53.4,43.9,30.16,NE,45,0.0,0.0,70,0.00,,,0.00,meteohub,2013-06-05 00:37:00,
2013-06-04 19:42:00,53.2,43.7,30.16,NE,45,0.0,1.0,70,0.00,,,0.00,meteohub,2013-06-05 00:42:00,
2013-06-04 19:47:00,53.2,43.7,30.16,NE,45,0.0,1.0,70,0.00,,,0.00,meteohub,2013-06-05 00:47:00,
2013-06-04 19:52:00,53.1,43.5,30.17,NE,45,0.0,1.0,70,0.00,,,0.00,meteohub,2013-06-05 00:52:00,
2013-06-04 19:57:00,53.2,43.7,30.16,NE,45,0.0,1.0,70,0.00,,,0.00,meteohub,2013-06-05 00:57:00,
2013-06-04 20:02:00,53.4,44.2,30.15,NE,45,0.0,0.0,71,0.00,,,0.00,meteohub,2013-06-05 01:02:00,
2013-06-04 20:07:00,53.4,44.2,30.16,North,0,0.0,0.0,71,0.00,,,0.00,meteohub,2013-06-05 01:07:00,
2013-06-04 20:12:00,53.2,43.7,30.15,East,90,0.0,0.0,70,0.00,,,0.00,meteohub,2013-06-05 01:12:00,
2013-06-04 20:17:00,53.1,43.5,30.16,ENE,68,0.0,0.0,70,0.00,,,0.00,meteohub,2013-06-05 01:17:00,
2013-06-04 20:22:00,53.1,43.5,30.15,NE,45,0.0,0.0,70,0.00,,,0.00,meteohub,2013-06-05 01:22:00,
2013-06-04 20:27:00,52.9,43.3,30.15,NW,315,0.0,1.0,70,0.00,,,0.00,meteohub,2013-06-05 01:27:00,
2013-06-04 20:32:00,52.9,43.3,30.15,NE,45,0.0,1.0,70,0.00,,,0.00,meteohub,2013-06-05 01:32:00,
2013-06-04 20:37:00,52.7,42.8,30.15,NE,45,0.0,1.0,69,0.00,,,0.00,meteohub,2013-06-05 01:37:00,
2013-06-04 20:42:00,52.3,42.4,30.15,North,0,0.0,0.0,69,0.00,,,0.00,meteohub,2013-06-05 01:42:00,
2013-06-04 20:47:00,52.3,42.4,30.15,East,90,0.0,0.0,69,0.00,,,0.00,meteohub,2013-06-05 01:47:00,
2013-06-04 20:52:00,52.3,42.4,30.16,NE,45,0.0,0.0,69,0.00,,,0.00,meteohub,2013-06-05 01:52:00,
2013-06-04 20:57:00,52.3,42.4,30.15,ENE,68,0.0,0.0,69,0.00,,,0.00,meteohub,2013-06-05 01:57:00,
2013-06-04 21:02:00,52.3,42.1,30.16,NE,45,0.0,1.0,68,0.00,,,0.00,meteohub,2013-06-05 02:02:00,
2013-06-04 21:07:00,52.3,41.7,30.16,NE,45,0.0,1.0,67,0.00,,,0.00,meteohub,2013-06-05 02:07:00,
2013-06-04 21:12:00,52.3,41.7,30.15,East,90,0.0,1.0,67,0.00,,,0.00,meteohub,2013-06-05 02:12:00,
2013-06-04 21:17:00,52.3,42.1,30.16,NE,45,0.0,1.0,68,0.00,,,0.00,meteohub,2013-06-05 02:17:00,
2013-06-04 21:22:00,52.3,42.1,30.16,NE,45,0.0,1.0,68,0.00,,,0.00,meteohub,2013-06-05 02:22:00,
2013-06-04 21:27:00,52.2,42.3,30.15,NE,45,0.0,1.0,69,0.00,,,0.00,meteohub,2013-06-05 02:27:00,
2013-06-04 21:32:00,52.0,42.4,30.15,NE,45,0.0,0.0,70,0.00,,,0.00,meteohub,2013-06-05 02:32:00,
2013-06-04 21:37:00,52.0,42.4,30.15,NE,45,0.0,0.0,70,0.00,,,0.00,meteohub,2013-06-05 02:37:00,
2013-06-04 21:42:00,52.2,42.3,30.16,North,0,0.0,0.0,69,0.00,,,0.00,meteohub,2013-06-05 02:42:00,
2013-06-04 21:47:00,52.3,42.4,30.16,NE,45,0.0,0.0,69,0.00,,,0.00,meteohub,2013-06-05 02:47:00,
2013-06-04 21:52:00,52.3,42.1,30.16,NE,45,0.0,1.0,68,0.00,,,0.00,meteohub,2013-06-05 02:52:00,
2013-06-04 21:57:00,52.3,42.4,30.16,NE,45,0.0,1.0,69,0.00,,,0.00,meteohub,2013-06-05 02:57:00,
2013-06-04 22:02:00,52.5,42.6,30.16,NE,45,0.0,1.0,69,0.00,,,0.00,meteohub,2013-06-05 03:02:00,
2013-06-04 22:07:00,52.5,42.3,30.16,NE,45,0.0,0.0,68,0.00,,,0.00,meteohub,2013-06-05 03:07:00,
2013-06-04 22:12:00,52.7,42.4,30.16,NE,45,0.0,0.0,68,0.00,,,0.00,meteohub,2013-06-05 03:12:00,
2013-06-04 22:17:00,52.9,42.6,30.17,East,90,0.0,0.0,68,0.00,,,0.00,meteohub,2013-06-05 03:17:00,
2013-06-04 22:22:00,52.9,42.6,30.17,ENE,68,0.0,0.0,68,0.00,,,0.00,meteohub,2013-06-05 03:22:00,
2013-06-04 22:27:00,52.9,43.0,30.17,NE,45,0.0,0.0,69,0.00,,,0.00,meteohub,2013-06-05 03:27:00,
2013-06-04 22:32:00,53.1,43.2,30.17,NE,45,0.0,0.0,69,0.00,,,0.00,meteohub,2013-06-05 03:32:00,
2013-06-04 22:37:00,52.9,43.3,30.17,NNE,23,0.0,0.0,70,0.00,,,0.00,meteohub,2013-06-05 03:37:00,
2013-06-04 22:42:00,52.9,43.7,30.17,NE,45,0.0,0.0,71,0.00,,,0.00,meteohub,2013-06-05 03:42:00,
2013-06-04 22:47:00,52.9,43.7,30.17,NE,45,0.0,0.0,71,0.00,,,0.00,meteohub,2013-06-05 03:47:00,
2013-06-04 22:52:00,52.9,44.1,30.17,North,0,0.0,0.0,72,0.00,,,0.00,meteohub,2013-06-05 03:52:00,
2013-06-04 22:57:00,52.9,44.4,30.16,NE,45,0.0,1.0,73,0.00,,,0.00,meteohub,2013-06-05 03:57:00,
2013-06-04 23:02:00,52.9,44.4,30.16,NE,45,0.0,1.0,73,0.00,,,0.00,meteohub,2013-06-05 04:02:00,
2013-06-04 23:07:00,52.7,44.6,30.17,SW,225,0.0,0.0,74,0.00,,,0.00,meteohub,2013-06-05 04:07:00,
2013-06-04 23:12:00,52.9,45.1,30.17,North,0,0.0,0.0,75,0.00,,,0.00,meteohub,2013-06-05 04:12:00,
2013-06-04 23:17:00,52.9,45.1,30.16,NE,45,0.0,0.0,75,0.00,,,0.00,meteohub,2013-06-05 04:17:00,
2013-06-04 23:22:00,52.9,45.1,30.17,NE,45,0.0,1.0,75,0.00,,,0.00,meteohub,2013-06-05 04:22:00,
2013-06-04 23:27:00,52.9,45.1,30.17,North,0,0.0,1.0,75,0.00,,,0.00,meteohub,2013-06-05 04:27:00,
2013-06-04 23:32:00,52.9,45.1,30.17,East,90,0.0,1.0,75,0.00,,,0.00,meteohub,2013-06-05 04:32:00,
2013-06-04 23:37:00,52.9,45.1,30.17,ENE,68,0.0,1.0,75,0.00,,,0.00,meteohub,2013-06-05 04:37:00,
2013-06-04 23:42:00,52.9,45.1,30.17,NE,45,0.0,1.0,75,0.00,,,0.00,meteohub,2013-06-05 04:42:00,
2013-06-04 23:47:00,52.9,45.5,30.17,NE,45,0.0,0.0,76,0.00,,,0.00,meteohub,2013-06-05 04:47:00,
2013-06-04 23:52:00,52.9,45.5,30.16,NE,45,0.0,0.0,76,0.00,,,0.00,meteohub,2013-06-05 04:52:00,
2013-06-04 23:57:00,52.9,45.5,30.16,East,90,0.0,0.0,76,0.00,,,0.00,meteohub,2013-06-05 04:57:00,